(57228) = 1980 TZ1 = 1999 CU35 = 2001 QY75

Discovered at Socorro on 2001-08-16 by LINEAR.

Orbit

Orbit type: Main Belt

Note: WebGL enabled browser required.

epoch2024-03-31.0
epoch JD2460400.5
perihelion date2021-06-18.63779
perihelion JD2459384.13779
argument of perihelion (°)269.58326
ascending node (°)27.57815
inclination (°)13.22912
eccentricity0.1672936
perihelion distance (AU)2.1427477
Tisserand w.r.t. Jupiter3.4
ΔV w.r.t. Earth (km/sec)10.0
semimajor axis (AU)2.5732331
mean anomaly (°)242.67981
mean daily motion (°/day)0.23877300
aphelion distance (AU)3.004
period (years)4.13
P-vector [x]0.44421353
P-vector [y]-0.70369811
P-vector [z]-0.55451178
Q-vector [x]0.88963465
Q-vector [y]0.41964856
Q-vector [z]0.18012574
absolute magnitude14.08
phase slope0.15
uncertainty0
referenceMPEC 2024-F50
observations used3195
oppositions20
arc length (days)15871
first opposition used1980
last opposition used2024
residual rms (arc-secs)0.56
perturbers coarse indicatorM-v
perturbers precise indicator003Ek
first observation date used1980-10-05.0
last observation date used2024-03-19.0
computer nameMPCLINUX
JD of orbit computation2456966.710143
perihelion JD uncertainty (days)9.5695E-05
argument of perihelion uncertainty (°)2.7941E-05
ascending node uncertainty (°)1.4450E-05
inclination uncertainty (°)7.0216E-06
eccentricity uncertainty 2.8950E-08
perihelion distance uncertainty (AU)7.7375E-08
Minimum Orbit Intersection Distances (in AU)
for orbit epoch: 2460400.5, reference: E2024-GF4
Mercury1.69823
Venus1.43464
Earth1.17682
Mars0.78591
Jupiter2.31302
Saturn6.18601
Uranus15.6026
Neptune27.1176

Observations

3240 total observations over interval: 1980 10 05.15486 – 2024 03 19.362678
These data are available for download (format description).

Date (UT) J2000 RA J2000 Dec Magn Location Ref
1980 10 05.15486 00 11 04.26 -08 55 51.1 18.5   809 – European Southern Observatory, La Silla MPC 5831
1998 12 27.34450 10 24 23.00 +27 59 20.2 18.5 R 699 – Lowell Observatory-LONEOS MPS 57163
1998 12 27.36996 10 24 22.83 +27 59 27.1   699 – Lowell Observatory-LONEOS MPS 57163
1998 12 27.39479 10 24 22.79 +27 59 34.3   699 – Lowell Observatory-LONEOS MPS 57163
1999 01 09.43833 10 20 55.86 +29 12 08.9 18.8 R 699 – Lowell Observatory-LONEOS MPS 57163
1999 01 09.47391 10 20 54.84 +29 12 21.2   699 – Lowell Observatory-LONEOS MPS 57163
1999 01 09.49431 10 20 54.21 +29 12 28.5   699 – Lowell Observatory-LONEOS MPS 57163
1999 01 14.42904 10 18 21.11 +29 42 46.6 18.4   704 – Lincoln Laboratory ETS, New Mexico MPS 34090
1999 01 14.45176 10 18 20.08 +29 42 55.7 18.4   704 – Lincoln Laboratory ETS, New Mexico MPS 34090
1999 01 14.47458 10 18 19.38 +29 43 00.5 18.6   704 – Lincoln Laboratory ETS, New Mexico MPS 34090
1999 01 14.49734 10 18 18.36 +29 43 09.5 18.6   704 – Lincoln Laboratory ETS, New Mexico MPS 34090
1999 01 14.52010 10 18 17.64 +29 43 18.6 18.7   704 – Lincoln Laboratory ETS, New Mexico MPS 34090
1999 02 10.31149 09 54 39.64 +32 10 00.8 19.1   704 – Lincoln Laboratory ETS, New Mexico MPS 3918
1999 02 10.33264 09 54 38.28 +32 10 05.7 18.6   704 – Lincoln Laboratory ETS, New Mexico MPS 3918
1999 02 10.35364 09 54 36.68 +32 10 10.6 18.3   704 – Lincoln Laboratory ETS, New Mexico MPS 3918
1999 02 10.37459 09 54 35.37 +32 10 15.4 18.3   704 – Lincoln Laboratory ETS, New Mexico MPS 3918
1999 02 10.39555 09 54 33.99 +32 10 20.3 19.0   704 – Lincoln Laboratory ETS, New Mexico MPS 3918
1999 02 13.35306 09 51 20.86 +32 20 48.2 18.1   704 – Lincoln Laboratory ETS, New Mexico MPS 3918
1999 02 13.36702 09 51 20.04 +32 20 52.4 18.1   704 – Lincoln Laboratory ETS, New Mexico MPS 3918
1999 02 13.38100 09 51 18.98 +32 20 54.2 18.6   704 – Lincoln Laboratory ETS, New Mexico MPS 3918
1999 02 13.39500 09 51 18.11 +32 20 57.7 18.8   704 – Lincoln Laboratory ETS, New Mexico MPS 3918
1999 02 13.40900 09 51 17.18 +32 21 01.6 19.0   704 – Lincoln Laboratory ETS, New Mexico MPS 3918
1999 02 22.32037 09 41 37.30 +32 41 40.5 18.6 R 699 – Lowell Observatory-LONEOS MPS 34090
1999 02 22.34075 09 41 35.93 +32 41 42.3   699 – Lowell Observatory-LONEOS MPS 34090
1999 02 22.36116 09 41 34.60 +32 41 43.4   699 – Lowell Observatory-LONEOS MPS 34090
2001 07 20.42790 02 46 52.39 +14 12 21.2 18.8 R 699 – Lowell Observatory-LONEOS MPS 34673
2001 07 20.43572 02 46 52.88 +14 12 25.2   699 – Lowell Observatory-LONEOS MPS 34673
2001 07 20.44356 02 46 53.45 +14 12 28.5   699 – Lowell Observatory-LONEOS MPS 34673
2001 07 20.45138 02 46 54.03 +14 12 32.5   699 – Lowell Observatory-LONEOS MPS 34673
2001 08 16.39809 03 13 10.88 +17 35 36.1 19.2   704 – Lincoln Laboratory ETS, New Mexico MPS 33613
2001 08 16.41003 03 13 11.42 +17 35 41.1 19.2   704 – Lincoln Laboratory ETS, New Mexico MPS 33613
2001 08 16.43391 03 13 12.46 +17 35 51.2 19.3   704 – Lincoln Laboratory ETS, New Mexico MPS 33613
2001 08 16.44596 03 13 13.03 +17 35 56.0 19.8   704 – Lincoln Laboratory ETS, New Mexico MPS 33613
2001 08 22.38672 03 17 18.18 +18 15 20.4 19.1   704 – Lincoln Laboratory ETS, New Mexico MPS 33613
2001 08 22.40403 03 17 18.76 +18 15 27.1 19.0   704 – Lincoln Laboratory ETS, New Mexico MPS 33613
2001 08 22.41627 03 17 19.20 +18 15 31.6 19.4   704 – Lincoln Laboratory ETS, New Mexico MPS 33613
2001 08 22.42845 03 17 19.62 +18 15 37.2 19.7   704 – Lincoln Laboratory ETS, New Mexico MPS 33613
2001 08 22.44110 03 17 20.12 +18 15 42.0 19.1   704 – Lincoln Laboratory ETS, New Mexico MPS 33613
2001 08 28.35896 03 20 38.08 +18 53 02.1 18.9   644 – Palomar Mountain/NEAT MPS 34673
2001 08 28.38035 03 20 38.69 +18 53 10.0 18.4   644 – Palomar Mountain/NEAT MPS 34673
2001 08 28.40239 03 20 39.30 +18 53 18.2 18.2   644 – Palomar Mountain/NEAT MPS 34673
2001 09 06.45243 03 24 02.90 +19 46 50.4 19.6   644 – Palomar Mountain/NEAT MPS 34673
2001 09 06.47445 03 24 03.24 +19 46 57.5 19.0   644 – Palomar Mountain/NEAT MPS 34673
2001 09 06.49758 03 24 03.56 +19 47 05.7 18.7   644 – Palomar Mountain/NEAT MPS 34673
2001 09 16.39890 03 25 13.29 +20 40 20.5 19.2   644 – Palomar Mountain/NEAT MPS 35992
2001 09 16.42037 03 25 13.21 +20 40 27.3 19.3   644 – Palomar Mountain/NEAT MPS 35992
2001 09 16.44189 03 25 13.13 +20 40 33.7 19.4   644 – Palomar Mountain/NEAT MPS 35992
2001 09 22.43804 03 24 29.80 +21 09 43.8 18.5   644 – Palomar Mountain/NEAT MPS 35992
2001 09 22.46292 03 24 29.44 +21 09 50.5 18.3   644 – Palomar Mountain/NEAT MPS 35992
2001 09 22.48946 03 24 29.08 +21 09 58.2 18.8   644 – Palomar Mountain/NEAT MPS 35992
2001 09 24.40896 03 24 01.11 +21 18 43.9 18.3   704 – Lincoln Laboratory ETS, New Mexico MPS 40275
2001 09 24.42385 03 24 00.84 +21 18 48.3 18.5   704 – Lincoln Laboratory ETS, New Mexico MPS 40275
2001 09 24.43955 03 24 00.58 +21 18 52.8 18.9   704 – Lincoln Laboratory ETS, New Mexico MPS 40275
2001 09 24.45444 03 24 00.28 +21 18 56.2 18.8   704 – Lincoln Laboratory ETS, New Mexico MPS 40275
2001 09 24.46932 03 23 59.96 +21 19 00.4 18.8   704 – Lincoln Laboratory ETS, New Mexico MPS 40275
2001 10 12.35447 03 14 13.38 +22 25 21.2 17.6 R 699 – Lowell Observatory-LONEOS MPS 37779
2001 10 12.37643 03 14 12.27 +22 25 24.7   699 – Lowell Observatory-LONEOS MPS 37779
2001 10 12.39826 03 14 11.20 +22 25 28.9   699 – Lowell Observatory-LONEOS MPS 37779
2001 10 12.40893 03 14 10.61 +22 25 29.9   699 – Lowell Observatory-LONEOS MPS 37779
2001 10 14.32280 03 12 35.32 +22 30 39.2 18.4   704 – Lincoln Laboratory ETS, New Mexico MPS 37779
2001 10 14.33876 03 12 34.48 +22 30 41.5 18.3   704 – Lincoln Laboratory ETS, New Mexico MPS 37779
2001 10 14.35452 03 12 33.69 +22 30 43.5 18.5   704 – Lincoln Laboratory ETS, New Mexico MPS 37779
2001 10 14.37028 03 12 32.79 +22 30 45.9 18.4   704 – Lincoln Laboratory ETS, New Mexico MPS 37780
2001 10 14.38605 03 12 31.96 +22 30 48.6 18.5   704 – Lincoln Laboratory ETS, New Mexico MPS 37780
2001 10 18.32459 03 08 58.25 +22 40 01.6 17.4   704 – Lincoln Laboratory ETS, New Mexico MPS 39235
2001 10 18.34023 03 08 57.35 +22 40 03.3 18.1   704 – Lincoln Laboratory ETS, New Mexico MPS 39235
2001 10 18.35582 03 08 56.38 +22 40 05.8 18.3   704 – Lincoln Laboratory ETS, New Mexico MPS 39235
2001 10 18.37179 03 08 55.59 +22 40 06.9 19.0   704 – Lincoln Laboratory ETS, New Mexico MPS 39235
2001 10 18.38769 03 08 54.49 +22 40 09.0 17.7   704 – Lincoln Laboratory ETS, New Mexico MPS 39235
2001 10 18.39202 03 08 54.34 +22 40 09.1 18.0 V 691 – Steward Observatory, Kitt Peak-Spacewatch MPS 39235
2001 10 18.41563 03 08 52.94 +22 40 12.0 17.9 V 691 – Steward Observatory, Kitt Peak-Spacewatch MPS 39235
2001 10 18.43837 03 08 51.60 +22 40 14.7 17.8 V 691 – Steward Observatory, Kitt Peak-Spacewatch MPS 39235
2001 10 19.48070 03 07 51.31 +22 42 21.2 17.4   644 – Palomar Mountain/NEAT MPS 39235
2001 10 19.49257 03 07 50.60 +22 42 22.5 17.5   644 – Palomar Mountain/NEAT MPS 39235
2001 10 19.50311 03 07 49.97 +22 42 23.5 17.5   644 – Palomar Mountain/NEAT MPS 39235
2001 10 21.34513 03 06 00.56 +22 45 47.8 18.1   704 – Lincoln Laboratory ETS, New Mexico MPS 39235
2001 10 21.36146 03 05 59.55 +22 45 49.5 18.7   704 – Lincoln Laboratory ETS, New Mexico MPS 39235
2001 10 21.37780 03 05 58.53 +22 45 50.7 18.3   704 – Lincoln Laboratory ETS, New Mexico MPS 39235
2001 10 21.39414 03 05 57.54 +22 45 52.0 18.4   704 – Lincoln Laboratory ETS, New Mexico MPS 39235
2001 10 21.41049 03 05 56.48 +22 45 53.6 18.6   704 – Lincoln Laboratory ETS, New Mexico MPS 39235
2001 10 28.27170 02 58 38.45 +22 54 45.3 18.5   704 – Lincoln Laboratory ETS, New Mexico MPS 39235
2001 10 28.28795 02 58 37.39 +22 54 46.2 18.5   704 – Lincoln Laboratory ETS, New Mexico MPS 39235
2001 10 28.30420 02 58 36.23 +22 54 47.5 18.2   704 – Lincoln Laboratory ETS, New Mexico MPS 39235
2001 11 10.31199 02 43 46.62 +22 56 27.1 17.8   704 – Lincoln Laboratory ETS, New Mexico MPS 40275
2001 11 10.32641 02 43 45.61 +22 56 26.4 18.2   704 – Lincoln Laboratory ETS, New Mexico MPS 40275
2001 11 10.34063 02 43 44.62 +22 56 25.8 18.0   704 – Lincoln Laboratory ETS, New Mexico MPS 40275
